GW2328 Weather Reports


Display with metric or nautical units.
time (UTC)temp
F
wind
direction
speed
MPH
gust
MPH
rain 1hr
in
rain 24hr
in
rain mn
in
humidity
%
barometer
mb
20260507003730 57 147 0.0 0.0 0.00 0.14 0.14 65 1018.4
20260507003226 57 147 0.0 0.0 0.00 0.14 0.14 63 1018.5
20260507002722 57 147 0.0 0.0 0.00 0.14 0.14 63 1018.6
20260507002218 57 147 0.0 0.0 0.00 0.14 0.14 62 1018.5
20260507001715 57 147 0.0 0.0 0.00 0.14 0.14 61 1018.4
20260507001213 57 147 0.0 0.0 0.00 0.14 0.14 61 1018.3
20260507000709 58 147 0.0 0.0 0.00 0.14 0.14 60 1018.4
20260507000205 58 147 0.0 0.0 0.00 0.14 0.14 60 1018.4
20260506235702 59 147 0.0 0.0 0.00 0.14 0.14 59 1018.4
20260506235157 59 148 0.0 0.0 0.00 0.14 0.14 58 1018.2
20260506234654 59 148 0.0 0.0 0.00 0.14 0.14 57 1018.2
20260506234151 59 148 0.0 0.0 0.00 0.14 0.14 56 1018.2
20260506233648 59 141 0.0 0.0 0.00 0.14 0.14 56 1018.2
20260506233145 59 133 0.0 1.0 0.00 0.14 0.14 57 1018.3
20260506232641 59 146 0.0 1.0 0.00 0.14 0.14 57 1018.3
20260506232137 59 149 0.0 1.0 0.00 0.14 0.14 57 1018.3
20260506231634 59 152 0.0 1.0 0.00 0.14 0.14 57 1018.4
20260506231133 59 137 0.0 1.0 0.00 0.14 0.14 57 1018.6
20260506230629 59 143 0.0 1.0 0.00 0.14 0.14 57 1018.5
20260506230126 59 157 1.0 2.0 0.00 0.14 0.14 58 1018.3
20260506225623 59 148 0.0 2.0 0.00 0.14 0.14 59 1018.3
20260506225119 59 136 0.0 1.0 0.00 0.14 0.14 60 1018.3
20260506224616 59 134 0.0 0.0 0.00 0.14 0.14 60 1018.2
20260506224112 60 141 0.0 0.0 0.00 0.14 0.14 60 1017.9
20260506223609 59 140 0.0 0.0 0.00 0.14 0.14 60 1018.1
20260506223105 59 143 0.0 2.0 0.00 0.14 0.14 59 1017.8
20260506222602 60 138 0.0 1.0 0.00 0.14 0.14 59 1017.7
20260506222058 60 142 2.0 2.0 0.00 0.14 0.14 58 1017.9
20260506221556 60 140 0.0 0.0 0.00 0.14 0.14 58 1017.7
20260506221054 60 132 0.0 0.0 0.00 0.14 0.14 58 1018.1
20260506220550 60 140 0.0 0.0 0.00 0.14 0.14 58 1018.1
20260506220045 60 145 0.0 1.0 0.00 0.14 0.14 56 1017.7
20260506215542 60 138 0.0 1.0 0.00 0.14 0.14 55 1017.9
20260506215038 60 138 0.0 1.0 0.00 0.14 0.14 55 1017.7
20260506214535 60 145 1.0 1.0 0.00 0.14 0.14 54 1017.9
20260506214032 61 159 2.0 2.0 0.00 0.14 0.14 53 1017.8
20260506213530 61 135 0.0 0.0 0.00 0.14 0.14 53 1017.7
20260506213027 61 116 0.0 1.0 0.00 0.14 0.14 54 1018.1
20260506212524 61 176 1.0 1.0 0.00 0.14 0.14 54 1018.4
20260506212019 61 148 0.0 1.0 0.00 0.14 0.14 54 1018.2
20260506211515 61 119 2.0 2.0 0.00 0.14 0.14 53 1018.3
20260506211013 61 137 0.0 1.0 0.00 0.14 0.14 52 1018.2
20260506210509 61 146 0.0 0.0 0.00 0.14 0.14 53 1018.1
20260506210006 61 134 1.0 1.0 0.00 0.14 0.14 53 1018.2
20260506205502 61 141 0.0 1.0 0.00 0.14 0.14 53 1018.0
20260506204958 61 138 0.0 1.0 0.00 0.14 0.14 53 1018.3
20260506204456 62 143 0.0 2.0 0.00 0.14 0.14 53 1018.4
20260506203953 62 143 1.0 1.0 0.00 0.14 0.14 52 1018.2
20260506203450 62 138 0.0 1.0 0.00 0.14 0.14 52 1018.3
20260506202947 63 152 1.0 1.0 0.00 0.14 0.14 52 1018.1
20260506202444 63 164 0.0 1.0 0.00 0.14 0.14 52 1018.1
20260506201940 63 137 0.0 2.0 0.00 0.14 0.14 52 1018.1
20260506201438 63 140 1.0 2.0 0.00 0.14 0.14 51 1018.1
20260506200934 63 211 4.0 5.0 0.00 0.14 0.14 51 1017.9
20260506200431 62 124 0.0 1.0 0.00 0.14 0.14 51 1018.0
20260506195927 63 166 1.0 2.0 0.00 0.14 0.14 51 1018.1
20260506195425 63 129 0.0 2.0 0.00 0.14 0.14 51 1018.1
20260506194921 62 154 0.0 1.0 0.00 0.14 0.14 51 1017.9
20260506194418 62 141 0.0 5.0 0.00 0.14 0.14 51 1018.5
20260506193915 62 209 3.0 3.0 0.00 0.14 0.14 51 1018.1
20260506193412 62 151 1.0 1.0 0.00 0.14 0.14 52 1018.4
20260506192908 62 157 1.0 2.0 0.00 0.14 0.14 52 1018.3
20260506192406 62 161 1.0 2.0 0.00 0.14 0.14 53 1018.3
20260506191902 62 120 1.0 2.0 0.00 0.14 0.14 53 1018.3
20260506191359 62 284 2.0 3.0 0.00 0.14 0.14 54 1018.2
20260506190856 61 136 0.0 1.0 0.00 0.14 0.14 53 1018.4
20260506190352 61 142 1.0 2.0 0.00 0.14 0.14 53 1018.3
20260506185849 62 160 3.0 3.0 0.00 0.14 0.14 54 1018.4
20260506185346 61 157 2.0 3.0 0.00 0.14 0.14 53 1018.2
20260506184843 61 186 2.0 2.0 0.00 0.14 0.14 53 1018.1
20260506184340 61 143 0.0 2.0 0.00 0.14 0.14 53 1018.2
20260506183837 62 69 1.0 2.0 0.00 0.14 0.14 54 1018.1
20260506183332 62 140 0.0 2.0 0.00 0.14 0.14 53 1017.9
20260506182830 62 113 1.0 1.0 0.00 0.14 0.14 55 1018.1
20260506182327 61 117 1.0 3.0 0.00 0.14 0.14 55 1017.9
20260506181825 61 177 3.0 5.0 0.00 0.14 0.14 55 1017.9
20260506181322 61 182 1.0 2.0 0.00 0.14 0.14 55 1017.8
20260506180819 61 265 3.0 5.0 0.00 0.14 0.14 56 1017.8
20260506180315 60 136 1.0 3.0 0.00 0.14 0.14 56 1017.8
20260506175812 60 136 1.0 3.0 0.00 0.14 0.14 56 1017.8
20260506175309 60 140 0.0 1.0 0.00 0.14 0.14 56 1018.1
20260506174806 60 185 2.0 3.0 0.00 0.14 0.14 57 1018.2
20260506174303 59 135 1.0 2.0 0.00 0.14 0.14 59 1017.9
20260506173801 59 166 1.0 2.0 0.00 0.14 0.14 58 1018.0
20260506173257 59 167 2.0 2.0 0.00 0.14 0.14 59 1018.1
20260506172754 59 54 3.0 3.0 0.00 0.14 0.14 60 1018.2
20260506172251 60 140 2.0 3.0 0.00 0.14 0.14 61 1018.2
20260506171749 59 144 1.0 1.0 0.00 0.14 0.14 61 1018.2
20260506171246 59 138 0.0 1.0 0.00 0.14 0.14 62 1018.5
20260506170743 58 176 1.0 2.0 0.00 0.14 0.14 62 1018.5
20260506170239 58 132 2.0 2.0 0.00 0.14 0.14 63 1018.7
20260506165738 60 140 0.0 2.0 0.00 0.14 0.14 65 1018.6
20260506165235 59 147 1.0 3.0 0.00 0.14 0.14 65 1018.7
20260506164732 58 31 3.0 3.0 0.00 0.14 0.14 65 1018.6
20260506164229 57 135 1.0 2.0 0.00 0.14 0.14 65 1018.7
20260506163726 57 138 0.0 2.0 0.00 0.14 0.14 66 1018.6
20260506163220 57 89 1.0 1.0 0.00 0.14 0.14 67 1018.7
20260506162717 57 139 1.0 2.0 0.00 0.14 0.14 67 1018.6
20260506162215 57 197 1.0 2.0 0.00 0.14 0.14 68 1018.6
20260506161712 57 136 1.0 5.0 0.00 0.14 0.14 69 1018.6
20260506161209 57 148 1.0 2.0 0.00 0.14 0.14 70 1018.5
20260506160706 57 264 3.0 5.0 0.00 0.14 0.14 71 1018.7
20260506160202 57 144 2.0 3.0 0.00 0.14 0.14 72 1018.9
20260506155701 57 205 1.0 2.0 0.00 0.14 0.14 73 1018.9
20260506155158 55 256 2.0 3.0 0.00 0.14 0.14 76 1018.5
20260506153306 55 213 2.0 3.0 0.00 0.14 0.14 77 1018.3
20260506152803 55 149 0.0 1.0 0.00 0.14 0.14 78 1018.1
20260506152300 55 137 0.0 1.0 0.00 0.14 0.14 79 1018.1
20260506151759 55 154 1.0 2.0 0.00 0.14 0.14 80 1018.1
20260506151255 54 168 0.0 1.0 0.00 0.14 0.14 81 1018.0
20260506150751 54 134 1.0 3.0 0.00 0.14 0.14 82 1017.9
20260506150249 53 142 1.0 1.0 0.00 0.14 0.14 83 1018.0
20260506145745 53 146 3.0 3.0 0.00 0.14 0.14 84 1018.1
20260506145242 53 134 2.0 2.0 0.00 0.14 0.14 85 1018.0
20260506144739 52 135 0.0 1.0 0.00 0.14 0.14 86 1018.1
20260506144236 52 149 2.0 2.0 0.00 0.14 0.14 87 1018.0
20260506143734 51 131 0.0 3.0 0.00 0.14 0.14 88 1018.0
20260506143231 51 151 0.0 1.0 0.00 0.14 0.14 88 1017.8
20260506142730 51 141 0.0 1.0 0.00 0.14 0.14 89 1017.7
20260506142227 51 170 0.0 2.0 0.00 0.14 0.14 89 1017.5
20260506141725 51 96 1.0 2.0 0.00 0.14 0.14 90 1017.7
20260506141223 51 170 1.0 3.0 0.00 0.14 0.14 91 1017.5
20260506140721 50 152 1.0 2.0 0.00 0.14 0.14 92 1017.7
20260506140217 50 141 2.0 3.0 0.00 0.14 0.14 93 1017.8
20260506135714 50 175 1.0 3.0 0.00 0.14 0.14 93 1017.6
20260506135210 50 143 0.0 2.0 0.00 0.14 0.14 94 1017.5
20260506134707 50 157 1.0 3.0 0.00 0.14 0.14 95 1017.5
20260506134203 50 142 1.0 1.0 0.00 0.14 0.14 96 1017.4
20260506133701 49 140 0.0 0.0 0.00 0.14 0.14 96 1017.4
20260506133157 49 148 0.0 2.0 0.00 0.14 0.14 96 1017.4
20260506132655 48 149 1.0 2.0 0.00 0.14 0.14 97 1017.2
20260506132151 48 152 1.0 2.0 0.00 0.14 0.14 97 1016.8
20260506131649 48 144 0.0 1.0 0.00 0.14 0.14 97 1016.6
20260506131145 47 139 0.0 1.0 0.00 0.14 0.14 97 1016.9
20260506130642 47 137 0.0 0.0 0.00 0.14 0.14 97 1017.4
20260506130139 47 139 0.0 1.0 0.00 0.14 0.14 98 1017.2
20260506125638 47 145 0.0 0.0 0.00 0.14 0.14 98 1016.9
20260506125135 46 133 0.0 0.0 0.00 0.14 0.14 98 1016.8
20260506124633 46 145 1.0 2.0 0.00 0.14 0.14 98 1017.3
20260506124130 46 139 0.0 0.0 0.00 0.14 0.14 98 1016.8
20260506123628 46 138 0.0 0.0 0.00 0.14 0.14 98 1016.8
20260506123126 46 140 0.0 0.0 0.00 0.14 0.14 98 1016.7
20260506122622 46 144 0.0 0.0 0.00 0.14 0.14 98 1016.8
20260506122120 46 138 0.0 0.0 0.00 0.14 0.14 98 1016.8
20260506121618 46 138 0.0 0.0 0.00 0.14 0.14 98 1016.6
20260506121114 46 138 0.0 1.0 0.00 0.14 0.14 98 1016.9
20260506120612 46 139 0.0 0.0 0.00 0.14 0.14 98 1016.8
20260506120109 46 151 0.0 0.0 0.00 0.14 0.14 98 1016.9
20260506115608 45 151 0.0 0.0 0.00 0.14 0.14 98 1016.5
20260506115105 45 151 0.0 1.0 0.00 0.14 0.14 98 1016.4
20260506114602 45 149 0.0 0.0 0.00 0.14 0.14 98 1016.5
20260506114101 45 149 0.0 0.0 0.00 0.14 0.14 98 1016.7
20260506113558 45 149 0.0 0.0 0.00 0.14 0.14 98 1015.9
20260506113055 45 149 0.0 0.0 0.00 0.14 0.14 98 1016.1
20260506112551 45 149 0.0 1.0 0.00 0.14 0.14 98 1016.0
20260506112049 45 149 0.0 0.0 0.00 0.14 0.14 98 1016.0
20260506111547 45 149 0.0 0.0 0.00 0.14 0.14 98 1015.7
20260506111044 45 149 0.0 0.0 0.00 0.14 0.14 98 1016.0
20260506110542 44 149 0.0 0.0 0.00 0.14 0.14 98 1015.7
20260506110039 44 149 0.0 0.0 0.00 0.14 0.14 98 1015.6
20260506105535 44 149 0.0 1.0 0.00 0.14 0.14 98 1015.5
20260506105032 44 149 0.0 1.0 0.07 0.14 0.14 98 1015.1
20260506104530 44 149 0.0 0.0 0.07 0.14 0.14 98 1014.8
20260506104028 44 149 0.0 0.0 0.00 0.13 0.13 98 1015.1
20260506103525 44 149 0.0 0.0 0.00 0.13 0.13 98 1015.2
20260506103021 44 148 0.0 0.0 0.00 0.13 0.13 98 1015.3
20260506102520 44 143 0.0 0.0 0.00 0.13 0.13 98 1015.1
20260506102017 44 150 1.0 1.0 0.00 0.13 0.13 98 1015.2
20260506101513 44 142 0.0 0.0 0.00 0.13 0.13 98 1014.8
20260506101011 44 144 0.0 0.0 0.00 0.13 0.13 98 1014.8
20260506100509 44 144 0.0 1.0 0.00 0.13 0.13 98 1014.8
20260506100007 44 138 0.0 0.0 0.00 0.13 0.13 98 1014.2
20260506095505 44 136 0.0 0.0 0.07 0.13 0.13 98 1014.6
20260506095001 45 143 0.0 0.0 0.07 0.13 0.13 98 1015.0
20260506094459 45 145 0.0 0.0 0.00 0.12 0.12 98 1014.7
20260506093956 45 147 0.0 0.0 0.00 0.12 0.12 98 1014.8
20260506093455 45 142 0.0 0.0 0.00 0.12 0.12 98 1014.6
20260506092952 45 146 0.0 0.0 0.00 0.12 0.12 98 1014.4
20260506092450 45 139 0.0 1.0 0.00 0.12 0.12 98 1014.2
20260506091946 45 141 0.0 0.0 0.00 0.12 0.12 98 1014.0
20260506091444 45 127 1.0 1.0 0.05 0.12 0.12 98 1014.0
20260506090941 45 139 0.0 1.0 0.05 0.12 0.12 98 1013.9
20260506090439 45 134 0.0 1.0 0.00 0.11 0.11 98 1013.7
20260506085935 45 147 0.0 1.0 0.00 0.11 0.11 98 1013.5
20260506085432 45 140 0.0 1.0 0.00 0.11 0.11 98 1013.5
20260506084928 45 148 0.0 1.0 0.00 0.11 0.11 98 1013.6
20260506084426 45 149 0.0 1.0 0.07 0.11 0.11 98 1013.7
20260506083921 45 133 0.0 0.0 0.00 0.10 0.10 98 1013.6
20260506083419 46 137 0.0 0.0 0.00 0.10 0.10 98 1014.0
20260506082916 46 132 0.0 2.0 0.00 0.10 0.10 98 1013.8
20260506082413 46 130 2.0 3.0 0.05 0.10 0.10 98 1013.7
20260506081908 46 139 0.0 2.0 0.05 0.10 0.10 98 1013.7
20260506081408 47 126 2.0 3.0 0.00 0.09 0.09 98 1013.5
20260506080904 47 132 0.0 2.0 0.00 0.09 0.09 98 1013.4
20260506080402 48 153 1.0 1.0 0.00 0.09 0.09 98 1013.2
20260506073345 48 136 0.0 1.0 0.05 0.08 0.08 98 1013.0
20260506072842 48 140 0.0 0.0 0.00 0.07 0.07 98 1012.9
20260506072340 49 144 0.0 1.0 0.07 0.07 0.07 98 1012.4
20260506071837 49 153 0.0 0.0 0.07 0.07 0.07 98 1012.6
20260506071335 49 140 0.0 1.0 0.00 0.06 0.06 99 1012.7
20260506070831 49 142 0.0 1.0 0.00 0.06 0.06 98 1012.4
20260506070328 49 164 1.0 1.0 0.05 0.06 0.06 98 1012.4
20260506062306 50 136 0.0 5.0 0.00 0.03 0.03 98 1012.1
20260506061802 50 134 0.0 1.0 0.07 0.03 0.03 98 1012.0
20260506061259 50 128 1.0 2.0 0.07 0.03 0.03 98 1012.0
20260506060757 50 144 0.0 2.0 0.00 0.02 0.02 98 1012.4
20260506060254 50 141 0.0 1.0 0.00 0.02 0.02 98 1012.2
20260506041057 52 134 0.0 1.0 0.05 0.92 0.92 98 1012.0
20260506040555 52 134 0.0 1.0 0.05 0.92 0.92 98 1012.0
20260506040051 52 134 0.0 1.0 0.05 0.92 0.92 98 1012.0
20260506035548 52 132 0.0 1.0 0.00 0.91 0.91 98 1011.6
20260506035044 52 137 0.0 1.0 0.07 0.91 0.91 98 1011.2
20260506034542 52 126 0.0 0.0 0.07 0.91 0.91 98 1011.4
20260506034038 52 146 0.0 0.0 0.05 0.90 0.90 98 1011.5
20260506033536 52 142 0.0 0.0 0.05 0.90 0.90 98 1011.4
20260506033033 52 146 0.0 0.0 0.07 0.89 0.89 98 1011.5
20260506032530 52 147 0.0 0.0 0.07 0.89 0.89 98 1011.3
20260506032027 52 153 0.0 1.0 0.05 0.88 0.88 98 1011.5
20260506031524 52 153 1.0 1.0 0.05 0.88 0.88 98 1011.1
20260506031021 52 142 0.0 1.0 0.07 0.87 0.87 98 1010.6
20260506030519 52 137 0.0 0.0 0.07 0.87 0.87 98 1011.8
20260506030016 53 138 0.0 0.0 0.00 0.86 0.86 98 1011.3
20260506025513 53 145 0.0 2.0 0.05 0.86 0.86 98 1011.2
20260506025009 53 140 0.0 0.0 0.05 0.86 0.86 98 1011.2
20260506024507 53 161 1.0 1.0 0.07 0.85 0.85 98 1011.3
20260506024002 53 148 0.0 2.0 0.00 0.84 0.84 98 1011.4
20260506023459 53 146 0.0 1.0 0.05 0.84 0.84 98 1011.1
20260506022956 54 132 0.0 1.0 0.00 0.83 0.83 98 1011.5
20260506022454 54 179 1.0 2.0 0.07 0.83 0.83 98 1011.6
20260506021951 54 153 1.0 1.0 0.00 0.82 0.82 98 1011.6
20260506021448 55 196 3.0 5.0 0.07 0.82 0.82 98 1011.5
20260506020945 57 115 1.0 1.0 0.07 0.82 0.82 98 1011.3
20260506020443 59 154 0.0 1.0 0.05 0.81 0.81 98 1011.2
20260506015940 61 145 0.0 0.0 0.07 0.80 0.80 98 1011.2
20260506015438 61 144 0.0 0.0 0.07 0.80 0.80 98 1011.2
20260506014934 61 174 1.0 1.0 0.05 0.79 0.79 98 1011.2
20260506014431 61 147 0.0 1.0 0.07 0.78 0.78 98 1010.9
20260506013927 61 151 0.0 1.0 0.12 0.78 0.78 98 1011.2
20260506013426 61 162 1.0 2.0 0.05 0.77 0.77 98 1011.1
20260506012922 61 267 1.0 1.0 0.07 0.76 0.76 98 1010.9
20260506012418 61 221 0.0 2.0 0.00 0.75 0.75 98 1010.8
20260506011915 60 151 0.0 0.0 0.00 0.75 0.75 98 1010.9
20260506011413 60 153 0.0 1.0 0.00 0.75 0.75 98 1010.8
20260506010909 61 152 0.0 1.0 0.05 0.75 0.75 98 1010.7
20260506010408 61 156 0.0 0.0 0.00 0.74 0.74 98 1010.5
20260506005904 61 143 0.0 0.0 0.00 0.74 0.74 98 1010.5
20260506005402 61 150 0.0 0.0 0.00 0.74 0.74 98 1010.6
20260506004857 61 150 0.0 0.0 0.00 0.74 0.74 98 1010.7
20260506004355 61 149 0.0 0.0 0.00 0.74 0.74 98 1010.8